| time (UTC) | temp F | wind direction | speed knots | gust knots | rain 1hr in | rain 24hr in | rain mn in | humidity % | barometer mb |
| 20260902194613 | 84 | 345 | 1.7 | 0.0 | 0.00 | 0.00 | 0.00 | 61 | 1016.8 |
| 20260902193057 | 85 | 17 | 2.6 | 0.0 | 0.00 | 0.00 | 0.00 | 60 | 1017.0 |
| 20260902191615 | 85 | 286 | 2.6 | 0.0 | 0.00 | 0.00 | 0.00 | 62 | 1017.2 |
| 20260902190023 | 85 | 24 | 2.6 | 0.0 | 0.00 | 0.00 | 0.00 | 59 | 1017.3 |
| 20260902184505 | 85 | 315 | 1.7 | 0.0 | 0.00 | 0.00 | 0.00 | 61 | 1017.4 |
| 20260902183029 | 85 | 292 | 2.6 | 0.0 | 0.00 | 0.00 | 0.00 | 59 | 1017.5 |
| 20260902181637 | 84 | 305 | 2.6 | 0.0 | 0.00 | 0.00 | 0.00 | 61 | 1017.5 |
| 20260902180030 | 84 | 303 | 3.5 | 0.0 | 0.00 | 0.00 | 0.00 | 60 | 1017.7 |
| 20260902174503 | 84 | 294 | 3.5 | 0.0 | 0.00 | 0.00 | 0.00 | 64 | 1017.7 |
| 20260902173022 | 84 | 21 | 2.6 | 0.0 | 0.00 | 0.00 | 0.00 | 63 | 1017.8 |
| 20260902171545 | 84 | 302 | 3.5 | 0.0 | 0.00 | 0.00 | 0.00 | 62 | 1018.0 |
| 20260902170050 | 83 | 229 | 2.6 | 0.0 | 0.00 | 0.00 | 0.00 | 63 | 1018.1 |
| 20260902164606 | 83 | 232 | 3.5 | 0.0 | 0.00 | 0.00 | 0.00 | 64 | 1018.3 |
| 20260902163013 | 82 | 139 | 1.7 | 0.0 | 0.00 | 0.00 | 0.00 | 70 | 1018.4 |
| 20260902161543 | 82 | 177 | 2.6 | 0.0 | 0.00 | 0.00 | 0.00 | 69 | 1018.4 |
| 20260902160048 | 81 | 46 | 2.6 | 0.0 | 0.00 | 0.00 | 0.00 | 72 | 1018.5 |
| 20260902154606 | 82 | 21 | 1.7 | 0.0 | 0.00 | 0.00 | 0.00 | 71 | 1018.7 |
| 20260902153020 | 82 | 297 | 2.6 | 0.0 | 0.00 | 0.00 | 0.00 | 76 | 1018.6 |
| 20260902151609 | 80 | 306 | 3.5 | 0.0 | 0.00 | 0.00 | 0.00 | 74 | 1018.7 |
| 20260902150023 | 79 | 5 | 2.6 | 0.0 | 0.00 | 0.00 | 0.00 | 77 | 1018.7 |
| 20260902144550 | 79 | 355 | 2.6 | 0.0 | 0.00 | 0.00 | 0.00 | 78 | 1018.6 |
| 20260902143030 | 78 | 355 | 2.6 | 0.0 | 0.00 | 0.00 | 0.00 | 79 | 1018.6 |
| 20260902141551 | 78 | 360 | 2.6 | 0.0 | 0.00 | 0.00 | 0.00 | 81 | 1018.4 |
| 20260902140056 | 77 | 302 | 2.6 | 0.0 | 0.00 | 0.00 | 0.00 | 82 | 1018.4 |
| 20260902134504 | 76 | 294 | 0.9 | 0.0 | 0.00 | 0.00 | 0.00 | 86 | 1018.5 |
| 20260902133027 | 74 | 294 | 0.0 | 0.0 | 0.00 | 0.00 | 0.00 | 89 | 1018.6 |
| 20260902131537 | 73 | 294 | 0.0 | 0.0 | 0.00 | 0.00 | 0.00 | 89 | 1018.6 |
| 20260902130037 | 71 | 294 | 0.9 | 0.0 | 0.00 | 0.00 | 0.00 | 91 | 1018.6 |
| 20260902124535 | 70 | 295 | 2.6 | 0.0 | 0.00 | 0.00 | 0.00 | 92 | 1018.6 |
| 20260902123103 | 69 | 296 | 3.5 | 0.0 | 0.00 | 0.00 | 0.00 | 93 | 1018.6 |
| 20260902121606 | 68 | 292 | 2.6 | 0.0 | 0.00 | 0.00 | 0.00 | 94 | 1018.5 |
| 20260902120105 | 67 | 294 | 3.5 | 0.0 | 0.00 | 0.00 | 0.00 | 95 | 1018.4 |
| 20260902114612 | 66 | 289 | 1.7 | 0.0 | 0.00 | 0.00 | 0.00 | 95 | 1018.4 |
| 20260902113015 | 65 | 288 | 1.7 | 0.0 | 0.00 | 0.00 | 0.00 | 95 | 1018.2 |
| 20260902111608 | 65 | 288 | 2.6 | 0.0 | 0.00 | 0.00 | 0.00 | 95 | 1018.1 |
| 20260902110023 | 65 | 288 | 2.6 | 0.0 | 0.00 | 0.00 | 0.00 | 95 | 1017.9 |
| 20260902104537 | 65 | 288 | 1.7 | 0.0 | 0.00 | 0.00 | 0.00 | 95 | 1018.0 |
| 20260902103040 | 65 | 288 | 1.7 | 0.0 | 0.00 | 0.00 | 0.00 | 95 | 1018.0 |
| 20260902101535 | 65 | 288 | 1.7 | 0.0 | 0.00 | 0.00 | 0.00 | 95 | 1017.9 |
| 20260902100036 | 65 | 289 | 1.7 | 0.0 | 0.00 | 0.00 | 0.00 | 94 | 1017.7 |
| 20260902094530 | 66 | 290 | 0.0 | 0.0 | 0.00 | 0.00 | 0.00 | 95 | 1017.6 |
| 20260902093032 | 66 | 290 | 2.6 | 0.0 | 0.00 | 0.00 | 0.00 | 95 | 1017.6 |
| 20260902091551 | 66 | 290 | 2.6 | 0.0 | 0.00 | 0.00 | 0.00 | 94 | 1017.6 |
| 20260902090049 | 66 | 290 | 2.6 | 0.0 | 0.00 | 0.00 | 0.00 | 95 | 1017.7 |
| 20260902084607 | 66 | 290 | 2.6 | 0.0 | 0.00 | 0.00 | 0.00 | 94 | 1017.6 |
| 20260902083004 | 66 | 290 | 2.6 | 0.0 | 0.00 | 0.00 | 0.00 | 94 | 1017.6 |
| 20260902081509 | 67 | 290 | 2.6 | 0.0 | 0.00 | 0.00 | 0.00 | 93 | 1017.5 |
| 20260902080037 | 67 | 291 | 2.6 | 0.0 | 0.00 | 0.00 | 0.00 | 93 | 1017.4 |
| 20260902074609 | 67 | 289 | 0.9 | 0.0 | 0.00 | 0.00 | 0.00 | 93 | 1017.5 |
| 20260902073032 | 67 | 290 | 2.6 | 0.0 | 0.00 | 0.00 | 0.00 | 93 | 1017.5 |
| 20260902071551 | 68 | 290 | 1.7 | 0.0 | 0.00 | 0.00 | 0.00 | 92 | 1017.6 |
| 20260902070052 | 68 | 290 | 2.6 | 0.0 | 0.00 | 0.00 | 0.00 | 92 | 1017.5 |
| 20260902064610 | 67 | 290 | 2.6 | 0.0 | 0.00 | 0.00 | 0.00 | 92 | 1017.5 |
| 20260902063005 | 67 | 290 | 2.6 | 0.0 | 0.00 | 0.00 | 0.00 | 92 | 1017.5 |
| 20260902061528 | 68 | 291 | 1.7 | 0.0 | 0.00 | 0.00 | 0.00 | 92 | 1017.4 |
| 20260902060113 | 68 | 291 | 2.6 | 0.0 | 0.00 | 0.00 | 0.00 | 92 | 1017.5 |
| 20260902054537 | 68 | 291 | 2.6 | 0.0 | 0.00 | 0.00 | 0.00 | 92 | 1017.4 |
| 20260902053034 | 68 | 291 | 2.6 | 0.0 | 0.00 | 0.00 | 0.00 | 91 | 1017.4 |
| 20260902051551 | 68 | 292 | 2.6 | 0.0 | 0.00 | 0.00 | 0.00 | 92 | 1017.3 |
| 20260902044614 | 69 | 296 | 0.9 | 0.0 | 0.00 | 0.00 | 0.00 | 90 | 1017.3 |
| 20260902043100 | 69 | 300 | 2.6 | 0.0 | 0.00 | 0.00 | 0.00 | 91 | 1017.3 |
| 20260902043025 | 69 | 300 | 2.6 | 0.0 | 0.00 | 0.00 | 0.00 | 91 | 1017.3 |
| 20260902041508 | 69 | 302 | 1.7 | 0.0 | 0.00 | 0.00 | 0.00 | 90 | 1017.5 |
| 20260902034552 | 70 | 304 | 0.0 | 0.0 | 0.00 | 0.00 | 0.01 | 90 | 1017.5 |
| 20260902033003 | 70 | 304 | 0.9 | 0.0 | 0.00 | 0.00 | 0.01 | 89 | 1017.3 |
| 20260902031501 | 70 | 304 | 1.7 | 0.0 | 0.00 | 0.00 | 0.01 | 90 | 1017.4 |
| 20260902030019 | 70 | 304 | 0.9 | 0.0 | 0.00 | 0.00 | 0.01 | 90 | 1017.4 |
| 20260902024552 | 71 | 304 | 2.6 | 0.0 | 0.00 | 0.00 | 0.01 | 89 | 1017.5 |
| 20260902023043 | 71 | 305 | 1.7 | 0.0 | 0.00 | 0.00 | 0.01 | 88 | 1017.3 |
| 20260902021613 | 71 | 305 | 1.7 | 0.0 | 0.00 | 0.00 | 0.01 | 89 | 1017.3 |
| 20260902020015 | 71 | 305 | 1.7 | 0.0 | 0.00 | 0.00 | 0.01 | 88 | 1017.0 |
| 20260902014533 | 71 | 305 | 1.7 | 0.0 | 0.00 | 0.00 | 0.01 | 89 | 1016.9 |
| 20260902013030 | 71 | 305 | 1.7 | 0.0 | 0.00 | 0.00 | 0.01 | 88 | 1016.7 |
| 20260902011621 | 72 | 305 | 0.9 | 0.0 | 0.00 | 0.00 | 0.01 | 88 | 1016.4 |
| 20260902010016 | 72 | 305 | 0.0 | 0.0 | 0.00 | 0.00 | 0.01 | 88 | 1016.2 |
| 20260902004623 | 72 | 305 | 0.0 | 0.0 | 0.00 | 0.00 | 0.01 | 88 | 1016.0 |
| 20260902003001 | 73 | 305 | 0.0 | 0.0 | 0.00 | 0.00 | 0.01 | 85 | 1016.0 |
| 20260902001507 | 75 | 305 | 0.9 | 0.0 | 0.00 | 0.00 | 0.01 | 85 | 1016.0 |
| 20260902000034 | 76 | 305 | 0.9 | 0.0 | 0.00 | 0.00 | 0.01 | 81 | 1016.1 |
| 20260901234546 | 77 | 305 | 0.9 | 0.0 | 0.00 | 0.00 | 0.01 | 79 | 1016.2 |
| 20260901233050 | 79 | 305 | 0.0 | 0.0 | 0.00 | 0.00 | 0.01 | 80 | 1016.4 |
| 20260901231610 | 80 | 305 | 0.9 | 0.0 | 0.00 | 0.00 | 0.01 | 73 | 1016.5 |
| 20260901230012 | 81 | 306 | 1.7 | 0.0 | 0.00 | 0.00 | 0.01 | 72 | 1016.6 |
| 20260901224536 | 81 | 307 | 1.7 | 0.0 | 0.00 | 0.00 | 0.01 | 72 | 1016.6 |
| 20260901223037 | 81 | 309 | 1.7 | 0.0 | 0.00 | 0.00 | 0.01 | 71 | 1016.7 |
| 20260901221552 | 81 | 301 | 1.7 | 0.0 | 0.00 | 0.00 | 0.01 | 70 | 1016.5 |
| 20260901220125 | 83 | 297 | 2.6 | 0.0 | 0.00 | 0.00 | 0.01 | 66 | 1016.6 |
| 20260901214613 | 82 | 300 | 2.6 | 0.0 | 0.00 | 0.00 | 0.01 | 66 | 1016.6 |
| 20260901213100 | 82 | 5 | 2.6 | 0.0 | 0.00 | 0.00 | 0.01 | 67 | 1016.5 |
| 20260901211607 | 83 | 360 | 3.5 | 0.0 | 0.00 | 0.00 | 0.01 | 64 | 1016.5 |
| 20260901210025 | 84 | 331 | 2.6 | 0.0 | 0.00 | 0.00 | 0.01 | 65 | 1016.5 |
| 20260901204543 | 84 | 15 | 4.3 | 0.0 | 0.00 | 0.00 | 0.01 | 65 | 1016.8 |
| 20260901203038 | 84 | 332 | 2.6 | 0.0 | 0.00 | 0.00 | 0.01 | 67 | 1017.0 |
| 20260901201559 | 83 | 293 | 2.6 | 0.0 | 0.00 | 0.00 | 0.01 | 64 | 1016.9 |
| 20260901200037 | 83 | 292 | 2.6 | 0.0 | 0.00 | 0.00 | 0.01 | 69 | 1016.9 |